Torna al catalogo

RADIO ROSTO

AttivoRadioamatoreUNKNOWN
NORAD 23439·PAYLOAD·🇷🇺 Russia

Lanciato Dec 26, 1994 da Baikonur Cosmodrome

Loading…

Prossimi Passaggi (prossime 24 ore)

TLE

AggiornatoSource: Space-Track

Epoca: Sep 14, 2026, 10:13 UTC

1 23439U 94085A   26257.42586329 -.00000047  00000-0 -12683-3 0  9994
2 23439  64.8161 158.8915 0159112 347.8316  11.8785 11.27583975305968

Traccia RADIO ROSTO in tempo reale con AllMySat

Download on the App Store